Year,Month,Day,Hour,Minute,Value (Times are PST for temperature in C)
2007,08,16,00,00,19.30
2007,08,16,00,01,19.30
2007,08,16,00,02,19.40
2007,08,16,00,03,19.40
2007,08,16,00,04,19.50
2007,08,16,00,05,19.60
2007,08,16,00,06,19.60
2007,08,16,00,07,19.60
2007,08,16,00,08,19.70
2007,08,16,00,09,19.70
2007,08,16,00,10,19.70
2007,08,16,00,11,19.70
2007,08,16,00,12,19.70
2007,08,16,00,13,19.80
2007,08,16,00,14,19.80
2007,08,16,00,15,19.80
2007,08,16,00,16,19.80
2007,08,16,00,17,19.70
2007,08,16,00,18,19.70
2007,08,16,00,19,19.70
2007,08,16,00,20,19.70
2007,08,16,00,21,19.60
2007,08,16,00,22,19.60
2007,08,16,00,23,19.60
2007,08,16,00,24,19.60
2007,08,16,00,25,19.60
2007,08,16,00,26,19.60
2007,08,16,00,27,19.50
2007,08,16,00,28,19.50
2007,08,16,00,29,19.50
2007,08,16,00,30,19.50
2007,08,16,00,31,19.50
2007,08,16,00,32,19.50
2007,08,16,00,33,19.40
2007,08,16,00,34,19.40
2007,08,16,00,35,19.30
2007,08,16,00,36,19.30
2007,08,16,00,37,19.20
2007,08,16,00,38,19.10
2007,08,16,00,39,19.00
2007,08,16,00,40,18.90
2007,08,16,00,41,18.80
2007,08,16,00,42,18.80
2007,08,16,00,43,18.70
2007,08,16,00,44,18.70
2007,08,16,00,45,18.60
2007,08,16,00,46,18.50
2007,08,16,00,47,18.50
2007,08,16,00,48,18.40
2007,08,16,00,49,18.40
2007,08,16,00,50,18.30
2007,08,16,00,51,18.30
2007,08,16,00,52,18.20
2007,08,16,00,53,18.10
2007,08,16,00,54,18.00
2007,08,16,00,55,17.90
2007,08,16,00,56,17.80
2007,08,16,00,57,17.80
2007,08,16,00,58,17.80
2007,08,16,00,59,17.70
2007,08,16,01,00,17.70
2007,08,16,01,01,17.70
2007,08,16,01,02,17.60
2007,08,16,01,03,17.60
2007,08,16,01,04,17.50
2007,08,16,01,05,17.50
2007,08,16,01,06,17.40
2007,08,16,01,07,17.40
2007,08,16,01,08,17.40
2007,08,16,01,09,17.30
2007,08,16,01,10,17.30
2007,08,16,01,11,17.30
2007,08,16,01,12,17.20
2007,08,16,01,13,17.20
2007,08,16,01,14,17.20
2007,08,16,01,15,17.10
2007,08,16,01,16,17.10
2007,08,16,01,17,17.00
2007,08,16,01,18,17.00
2007,08,16,01,19,17.00
2007,08,16,01,20,16.90
2007,08,16,01,21,16.90
2007,08,16,01,22,16.80
2007,08,16,01,23,16.80
2007,08,16,01,24,16.80
2007,08,16,01,25,16.80
2007,08,16,01,26,16.80
2007,08,16,01,27,16.80
2007,08,16,01,28,16.80
2007,08,16,01,29,16.80
2007,08,16,01,30,16.80
2007,08,16,01,31,16.80
2007,08,16,01,32,16.80
2007,08,16,01,33,16.80
2007,08,16,01,34,16.80
2007,08,16,01,35,16.80
2007,08,16,01,36,16.80
2007,08,16,01,37,16.80
2007,08,16,01,38,16.80
2007,08,16,01,39,16.90
2007,08,16,01,40,16.90
2007,08,16,01,41,17.00
2007,08,16,01,42,17.00
2007,08,16,01,43,17.00
2007,08,16,01,44,16.90
2007,08,16,01,45,17.00
2007,08,16,01,46,17.00
2007,08,16,01,47,17.00
2007,08,16,01,48,16.90
2007,08,16,01,49,16.90
2007,08,16,01,50,16.80
2007,08,16,01,51,16.80
2007,08,16,01,52,16.80
2007,08,16,01,53,16.70
2007,08,16,01,54,16.70
2007,08,16,01,55,16.60
2007,08,16,01,56,16.60
2007,08,16,01,57,16.60
2007,08,16,01,58,16.60
2007,08,16,01,59,16.50
2007,08,16,02,00,16.50
2007,08,16,02,01,16.50
2007,08,16,02,02,16.50
2007,08,16,02,03,16.50
2007,08,16,02,04,16.50
2007,08,16,02,05,16.50
2007,08,16,02,06,16.50
2007,08,16,02,07,16.40
2007,08,16,02,08,16.50
2007,08,16,02,09,16.40
2007,08,16,02,10,16.40
2007,08,16,02,11,16.40
2007,08,16,02,12,16.40
2007,08,16,02,13,16.40
2007,08,16,02,14,16.40
2007,08,16,02,15,16.40
2007,08,16,02,16,16.40
2007,08,16,02,17,16.40
2007,08,16,02,18,16.40
2007,08,16,02,19,16.40
2007,08,16,02,20,16.40
2007,08,16,02,21,16.40
2007,08,16,02,22,16.30
2007,08,16,02,23,16.30
2007,08,16,02,24,16.30
2007,08,16,02,25,16.30
2007,08,16,02,26,16.30
2007,08,16,02,27,16.30
2007,08,16,02,28,16.30
2007,08,16,02,29,16.30
2007,08,16,02,30,16.30
2007,08,16,02,31,16.30
2007,08,16,02,32,16.30
2007,08,16,02,33,16.30
2007,08,16,02,34,16.30
2007,08,16,02,35,16.30
2007,08,16,02,36,16.30
2007,08,16,02,37,16.20
2007,08,16,02,38,16.20
2007,08,16,02,39,16.20
2007,08,16,02,40,16.20
2007,08,16,02,41,16.20
2007,08,16,02,42,16.20
2007,08,16,02,43,16.10
2007,08,16,02,44,16.10
2007,08,16,02,45,16.10
2007,08,16,02,46,16.10
2007,08,16,02,47,16.10
2007,08,16,02,48,16.00
2007,08,16,02,49,16.00
2007,08,16,02,50,16.00
2007,08,16,02,51,15.90
2007,08,16,02,52,15.90
2007,08,16,02,53,15.90
2007,08,16,02,54,15.90
2007,08,16,02,55,15.90
2007,08,16,02,56,15.90
2007,08,16,02,57,15.90
2007,08,16,02,58,16.00
2007,08,16,02,59,16.00
2007,08,16,03,00,16.00
2007,08,16,03,01,16.00
2007,08,16,03,02,16.00
2007,08,16,03,03,16.10
2007,08,16,03,04,16.10
2007,08,16,03,05,16.10
2007,08,16,03,06,16.10
2007,08,16,03,07,16.10
2007,08,16,03,08,16.10
2007,08,16,03,09,16.10
2007,08,16,03,10,16.10
2007,08,16,03,11,16.10
2007,08,16,03,12,16.20
2007,08,16,03,13,16.30
2007,08,16,03,14,16.30
2007,08,16,03,15,16.40
2007,08,16,03,16,16.40
2007,08,16,03,17,16.50
2007,08,16,03,18,16.50
2007,08,16,03,19,16.50
2007,08,16,03,20,16.50
2007,08,16,03,21,16.50
2007,08,16,03,22,16.50
2007,08,16,03,23,16.60
2007,08,16,03,24,16.60
2007,08,16,03,25,16.60
2007,08,16,03,26,16.60
2007,08,16,03,27,16.60
2007,08,16,03,28,16.60
2007,08,16,03,29,16.60
2007,08,16,03,30,16.60
2007,08,16,03,31,16.60
2007,08,16,03,32,16.50
2007,08,16,03,33,16.50
2007,08,16,03,34,16.40
2007,08,16,03,35,16.30
2007,08,16,03,36,16.20
2007,08,16,03,37,16.10
2007,08,16,03,38,16.00
2007,08,16,03,39,15.90
2007,08,16,03,40,15.90
2007,08,16,03,41,15.80
2007,08,16,03,42,15.80
2007,08,16,03,43,15.70
2007,08,16,03,44,15.60
2007,08,16,03,45,15.60
2007,08,16,03,46,15.50
2007,08,16,03,47,15.50
2007,08,16,03,48,15.50
2007,08,16,03,49,15.40
2007,08,16,03,50,15.40
2007,08,16,03,51,15.40
2007,08,16,03,52,15.40
2007,08,16,03,53,15.40
2007,08,16,03,54,15.40
2007,08,16,03,55,15.40
2007,08,16,03,56,15.50
2007,08,16,03,57,15.40
2007,08,16,03,58,15.40
2007,08,16,03,59,15.40
2007,08,16,04,00,15.40
2007,08,16,04,01,15.40
2007,08,16,04,02,15.30
2007,08,16,04,03,15.30
2007,08,16,04,04,15.20
2007,08,16,04,05,15.10
2007,08,16,04,06,15.00
2007,08,16,04,07,15.00
2007,08,16,04,08,15.00
2007,08,16,04,09,15.00
2007,08,16,04,10,15.00
2007,08,16,04,11,15.00
2007,08,16,04,12,15.00
2007,08,16,04,13,15.00
2007,08,16,04,14,15.00
2007,08,16,04,15,15.00
2007,08,16,04,16,15.00
2007,08,16,04,17,15.00
2007,08,16,04,18,15.00
2007,08,16,04,19,15.00
2007,08,16,04,20,15.00
2007,08,16,04,21,15.00
2007,08,16,04,22,15.00
2007,08,16,04,23,15.00
2007,08,16,04,24,15.00
2007,08,16,04,25,15.00
2007,08,16,04,26,15.00
2007,08,16,04,27,15.00
2007,08,16,04,28,15.00
2007,08,16,04,29,15.00
2007,08,16,04,30,15.00
2007,08,16,04,31,15.00
2007,08,16,04,32,15.00
2007,08,16,04,33,15.00
2007,08,16,04,34,15.00
2007,08,16,04,35,15.00
2007,08,16,04,36,15.00
2007,08,16,04,37,15.00
2007,08,16,04,38,14.90
2007,08,16,04,39,14.90
2007,08,16,04,40,14.90
2007,08,16,04,41,14.80
2007,08,16,04,42,14.80
2007,08,16,04,43,14.80
2007,08,16,04,44,14.80
2007,08,16,04,45,14.80
2007,08,16,04,46,14.80
2007,08,16,04,47,14.70
2007,08,16,04,48,14.70
2007,08,16,04,49,14.70
2007,08,16,04,50,14.70
2007,08,16,04,51,14.90
2007,08,16,04,52,15.00
2007,08,16,04,53,15.00
2007,08,16,04,54,15.10
2007,08,16,04,55,15.20
2007,08,16,04,56,15.20
2007,08,16,04,57,15.30
2007,08,16,04,58,15.30
2007,08,16,04,59,15.30
2007,08,16,05,00,15.30
2007,08,16,05,01,15.30
2007,08,16,05,02,15.40
2007,08,16,05,03,15.40
2007,08,16,05,04,15.40
2007,08,16,05,05,15.40
2007,08,16,05,06,15.40
2007,08,16,05,07,15.40
2007,08,16,05,08,15.40
2007,08,16,05,09,15.40
2007,08,16,05,10,15.40
2007,08,16,05,11,15.40
2007,08,16,05,12,15.40
2007,08,16,05,13,15.40
2007,08,16,05,14,15.40
2007,08,16,05,15,15.50
2007,08,16,05,16,15.50
2007,08,16,05,17,15.50
2007,08,16,05,18,15.50
2007,08,16,05,19,15.50
2007,08,16,05,20,15.50
2007,08,16,05,21,15.40
2007,08,16,05,22,15.40
2007,08,16,05,23,15.40
2007,08,16,05,24,15.40
2007,08,16,05,25,15.40
2007,08,16,05,26,15.30
2007,08,16,05,27,15.20
2007,08,16,05,28,15.00
2007,08,16,05,29,15.00
2007,08,16,05,30,15.00
2007,08,16,05,31,15.00
2007,08,16,05,32,15.00
2007,08,16,05,33,15.00
2007,08,16,05,34,15.00
2007,08,16,05,35,15.00
2007,08,16,05,36,15.00
2007,08,16,05,37,15.00
2007,08,16,05,38,15.00
2007,08,16,05,39,15.00
2007,08,16,05,40,15.00
2007,08,16,05,41,15.00
2007,08,16,05,42,15.00
2007,08,16,05,43,15.00
2007,08,16,05,44,15.00
2007,08,16,05,45,15.00
2007,08,16,05,46,15.00
2007,08,16,05,47,15.00
2007,08,16,05,48,15.10
2007,08,16,05,49,15.10
2007,08,16,05,50,15.10
2007,08,16,05,51,15.10
2007,08,16,05,52,15.10
2007,08,16,05,53,15.10
2007,08,16,05,54,15.10
2007,08,16,05,55,15.00
2007,08,16,05,56,15.00
2007,08,16,05,57,15.00
2007,08,16,05,58,15.00
2007,08,16,05,59,15.00
2007,08,16,06,00,15.00
2007,08,16,06,01,15.00
2007,08,16,06,02,15.00
2007,08,16,06,03,15.00
2007,08,16,06,04,15.00
2007,08,16,06,05,15.00
2007,08,16,06,06,15.00
2007,08,16,06,07,15.00
2007,08,16,06,08,15.00
2007,08,16,06,09,15.00
2007,08,16,06,10,15.00
2007,08,16,06,11,15.00
2007,08,16,06,12,15.00
2007,08,16,06,13,15.00
2007,08,16,06,14,15.00
2007,08,16,06,15,15.00
2007,08,16,06,16,15.10
2007,08,16,06,17,15.20
2007,08,16,06,18,15.30
2007,08,16,06,19,15.30
2007,08,16,06,20,15.40
2007,08,16,06,21,15.40
2007,08,16,06,22,15.50
2007,08,16,06,23,15.60
2007,08,16,06,24,15.60
2007,08,16,06,25,15.60
2007,08,16,06,26,15.60
2007,08,16,06,27,15.60
2007,08,16,06,28,15.60
2007,08,16,06,29,15.60
2007,08,16,06,30,15.60
2007,08,16,06,31,15.60
2007,08,16,06,32,15.60
2007,08,16,06,33,15.60
2007,08,16,06,34,15.60
2007,08,16,06,35,15.50
2007,08,16,06,36,15.50
2007,08,16,06,37,15.40
2007,08,16,06,38,15.40
2007,08,16,06,39,15.40
2007,08,16,06,40,15.40
2007,08,16,06,41,15.30
2007,08,16,06,42,15.30
2007,08,16,06,43,15.30
2007,08,16,06,44,15.20
2007,08,16,06,45,15.20
2007,08,16,06,46,15.20
2007,08,16,06,47,15.20
2007,08,16,06,48,15.20
2007,08,16,06,49,15.10
2007,08,16,06,50,15.10
2007,08,16,06,51,15.10
2007,08,16,06,52,15.10
2007,08,16,06,53,15.20
2007,08,16,06,54,15.20
2007,08,16,06,55,15.20
2007,08,16,06,56,15.30
2007,08,16,06,57,15.30
2007,08,16,06,58,15.30
2007,08,16,06,59,15.40
2007,08,16,07,00,15.40
2007,08,16,07,01,15.50
2007,08,16,07,02,15.60
2007,08,16,07,03,15.60
2007,08,16,07,04,15.60
2007,08,16,07,05,15.60
2007,08,16,07,06,15.60
2007,08,16,07,07,15.60
2007,08,16,07,08,15.60
2007,08,16,07,09,15.60
2007,08,16,07,10,15.60
2007,08,16,07,11,15.60
2007,08,16,07,12,15.60
2007,08,16,07,13,15.60
2007,08,16,07,14,15.60
2007,08,16,07,15,15.60
2007,08,16,07,16,15.60
2007,08,16,07,17,15.60
2007,08,16,07,18,15.70
2007,08,16,07,19,15.70
2007,08,16,07,20,15.70
2007,08,16,07,21,15.70
2007,08,16,07,22,15.70
2007,08,16,07,23,15.70
2007,08,16,07,24,15.70
2007,08,16,07,25,15.70
2007,08,16,07,26,15.70
2007,08,16,07,27,15.70
2007,08,16,07,28,15.70
2007,08,16,07,29,15.70
2007,08,16,07,30,15.70
2007,08,16,07,31,15.70
2007,08,16,07,32,15.70
2007,08,16,07,33,15.70
2007,08,16,07,34,15.70
2007,08,16,07,35,15.70
2007,08,16,07,36,15.70
2007,08,16,07,37,15.70
2007,08,16,07,38,15.80
2007,08,16,07,39,15.80
2007,08,16,07,40,15.80
2007,08,16,07,41,15.80
2007,08,16,07,42,15.80
2007,08,16,07,43,15.90
2007,08,16,07,44,15.90
2007,08,16,07,45,15.90
2007,08,16,07,46,16.00
2007,08,16,07,47,16.00
2007,08,16,07,48,16.00
2007,08,16,07,49,16.00
2007,08,16,07,50,16.00
2007,08,16,07,51,15.90
2007,08,16,07,52,15.90
2007,08,16,07,53,15.90
2007,08,16,07,54,15.90
2007,08,16,07,55,15.90
2007,08,16,07,56,15.90
2007,08,16,07,57,15.90
2007,08,16,07,58,15.90
2007,08,16,07,59,15.90
2007,08,16,08,00,15.90
2007,08,16,08,01,15.90
2007,08,16,08,02,16.00
2007,08,16,08,03,16.00
2007,08,16,08,04,16.10
2007,08,16,08,05,16.10
2007,08,16,08,06,16.10
2007,08,16,08,07,16.20
2007,08,16,08,08,16.20
2007,08,16,08,09,16.20
2007,08,16,08,10,16.30
2007,08,16,08,11,16.30
2007,08,16,08,12,16.40
2007,08,16,08,13,16.40
2007,08,16,08,14,16.50
2007,08,16,08,15,16.50
2007,08,16,08,16,16.50
2007,08,16,08,17,16.50
2007,08,16,08,18,16.50
2007,08,16,08,19,16.50
2007,08,16,08,20,16.60
2007,08,16,08,21,16.60
2007,08,16,08,22,16.60
2007,08,16,08,23,16.60
2007,08,16,08,24,16.60
2007,08,16,08,25,16.70
2007,08,16,08,26,16.70
2007,08,16,08,27,16.80
2007,08,16,08,28,16.80
2007,08,16,08,29,16.80
2007,08,16,08,30,16.80
2007,08,16,08,31,16.90
2007,08,16,08,32,16.90
2007,08,16,08,33,16.90
2007,08,16,08,34,16.90
2007,08,16,08,35,17.00
2007,08,16,08,36,17.00
2007,08,16,08,37,17.00
2007,08,16,08,38,17.10
2007,08,16,08,39,17.10
2007,08,16,08,40,17.10
2007,08,16,08,41,17.10
2007,08,16,08,42,17.20
2007,08,16,08,43,17.20
2007,08,16,08,44,17.20
2007,08,16,08,45,17.20
2007,08,16,08,46,17.30
2007,08,16,08,47,17.30
2007,08,16,08,48,17.30
2007,08,16,08,49,17.40
2007,08,16,08,50,17.40
2007,08,16,08,51,17.50
2007,08,16,08,52,17.50
2007,08,16,08,53,17.50
2007,08,16,08,54,17.60
2007,08,16,08,55,17.60
2007,08,16,08,56,17.60
2007,08,16,08,57,17.60
2007,08,16,08,58,17.60
2007,08,16,08,59,17.60
2007,08,16,09,00,17.60
2007,08,16,09,01,17.70
2007,08,16,09,02,17.70
2007,08,16,09,03,17.70
2007,08,16,09,04,17.70
2007,08,16,09,05,17.70
2007,08,16,09,06,17.70
2007,08,16,09,07,17.70
2007,08,16,09,08,17.70
2007,08,16,09,09,17.70
2007,08,16,09,10,17.70
2007,08,16,09,11,17.70
2007,08,16,09,12,17.70
2007,08,16,09,13,17.70
2007,08,16,09,14,17.70
2007,08,16,09,15,17.70
2007,08,16,09,16,17.70
2007,08,16,09,17,17.70
2007,08,16,09,18,17.70
2007,08,16,09,19,17.70
2007,08,16,09,20,17.70
2007,08,16,09,21,17.70
2007,08,16,09,22,17.70
2007,08,16,09,23,17.70
2007,08,16,09,24,17.70
2007,08,16,09,25,17.80
2007,08,16,09,26,17.80
2007,08,16,09,27,17.80
2007,08,16,09,28,17.70
2007,08,16,09,29,17.70
2007,08,16,09,30,17.70
2007,08,16,09,31,17.70
2007,08,16,09,32,17.70
2007,08,16,09,33,17.70
2007,08,16,09,34,17.60
2007,08,16,09,35,17.60
2007,08,16,09,36,17.60
2007,08,16,09,37,17.60
2007,08,16,09,38,17.50
2007,08,16,09,39,17.50
2007,08,16,09,40,17.50
2007,08,16,09,41,17.50
2007,08,16,09,42,17.50
2007,08,16,09,43,17.40
2007,08,16,09,44,17.40
2007,08,16,09,45,17.40
2007,08,16,09,46,17.40
2007,08,16,09,47,17.40
2007,08,16,09,48,17.40
2007,08,16,09,49,17.40
2007,08,16,09,50,17.30
2007,08,16,09,51,17.30
2007,08,16,09,52,17.30
2007,08,16,09,53,17.30
2007,08,16,09,54,17.30
2007,08,16,09,55,17.30
2007,08,16,09,56,17.30
2007,08,16,09,57,17.30
2007,08,16,09,58,17.20
2007,08,16,09,59,17.20
2007,08,16,10,00,17.20
2007,08,16,10,01,17.20
2007,08,16,10,02,17.20
2007,08,16,10,03,17.10
2007,08,16,10,04,17.10
2007,08,16,10,05,17.10
2007,08,16,10,06,17.00
2007,08,16,10,07,17.00
2007,08,16,10,08,17.00
2007,08,16,10,09,17.00
2007,08,16,10,10,16.90
2007,08,16,10,11,16.90
2007,08,16,10,12,16.90
2007,08,16,10,13,16.90
2007,08,16,10,14,16.90
2007,08,16,10,15,16.80
2007,08,16,10,16,16.80
2007,08,16,10,17,16.80
2007,08,16,10,18,16.80
2007,08,16,10,19,16.70
2007,08,16,10,20,16.70
2007,08,16,10,21,16.70
2007,08,16,10,22,16.70
2007,08,16,10,23,16.70
2007,08,16,10,24,16.70
2007,08,16,10,25,16.70
2007,08,16,10,26,16.70
2007,08,16,10,27,16.70
2007,08,16,10,28,16.70
2007,08,16,10,29,16.70
2007,08,16,10,30,16.70
2007,08,16,10,31,16.70
2007,08,16,10,32,16.70
2007,08,16,10,33,16.60
2007,08,16,10,34,16.60
2007,08,16,10,35,16.60
2007,08,16,10,36,16.60
2007,08,16,10,37,16.60
2007,08,16,10,38,16.60
2007,08,16,10,39,16.60
2007,08,16,10,40,16.60
2007,08,16,10,41,16.60
2007,08,16,10,42,16.60
2007,08,16,10,43,16.70
2007,08,16,10,44,16.70
2007,08,16,10,45,16.70
2007,08,16,10,46,16.70
2007,08,16,10,47,16.70
2007,08,16,10,48,16.70
2007,08,16,10,49,16.70
2007,08,16,10,50,16.80
2007,08,16,10,51,16.80
2007,08,16,10,52,16.80
2007,08,16,10,53,16.90
2007,08,16,10,54,16.90
2007,08,16,10,55,16.90
2007,08,16,10,56,17.00
2007,08,16,10,57,17.00
2007,08,16,10,58,17.10
2007,08,16,10,59,17.10
2007,08,16,11,00,17.20
2007,08,16,11,01,17.20
2007,08,16,11,02,17.30
2007,08,16,11,03,17.30
2007,08,16,11,04,17.40
2007,08,16,11,05,17.40
2007,08,16,11,06,17.40
2007,08,16,11,07,17.40
2007,08,16,11,08,17.40
2007,08,16,11,09,17.40
2007,08,16,11,10,17.40
2007,08,16,11,11,17.40
2007,08,16,11,12,17.40
2007,08,16,11,13,17.40
2007,08,16,11,14,17.40
2007,08,16,11,15,17.40
2007,08,16,11,16,17.40
2007,08,16,11,17,17.50
2007,08,16,11,18,17.50
2007,08,16,11,19,17.50
2007,08,16,11,20,17.50
2007,08,16,11,21,17.50
2007,08,16,11,22,17.50
2007,08,16,11,23,17.50
2007,08,16,11,24,17.60
2007,08,16,11,25,17.60
2007,08,16,11,26,17.60
2007,08,16,11,27,17.70
2007,08,16,11,28,17.70
2007,08,16,11,29,17.80
2007,08,16,11,30,17.80
2007,08,16,11,31,17.80
2007,08,16,11,32,17.90
2007,08,16,11,33,17.90
2007,08,16,11,34,18.00
2007,08,16,11,35,18.10
2007,08,16,11,36,18.10
2007,08,16,11,37,18.20
2007,08,16,11,38,18.20
2007,08,16,11,39,18.20
2007,08,16,11,40,18.20
2007,08,16,11,41,18.20
2007,08,16,11,42,18.30
2007,08,16,11,43,18.20
2007,08,16,11,44,18.20
2007,08,16,11,45,18.20
2007,08,16,11,46,18.20
2007,08,16,11,47,18.20
2007,08,16,11,48,18.20
2007,08,16,11,49,18.20
2007,08,16,11,50,18.20
2007,08,16,11,51,18.30
2007,08,16,11,52,18.30
2007,08,16,11,53,18.30
2007,08,16,11,54,18.30
2007,08,16,11,55,18.30
2007,08,16,11,56,18.30
2007,08,16,11,57,18.30
2007,08,16,11,58,18.40
2007,08,16,11,59,18.40
2007,08,16,12,00,18.40
2007,08,16,12,01,18.40
2007,08,16,12,02,18.40
2007,08,16,12,03,18.50
2007,08,16,12,04,18.60
2007,08,16,12,05,18.60
2007,08,16,12,06,18.70
2007,08,16,12,07,18.80
2007,08,16,12,08,18.90
2007,08,16,12,09,19.00
2007,08,16,12,10,19.10
2007,08,16,12,11,19.30
2007,08,16,12,12,19.40
2007,08,16,12,13,19.60
2007,08,16,12,14,19.60
2007,08,16,12,15,19.60
2007,08,16,12,16,19.60
2007,08,16,12,17,19.60
2007,08,16,12,18,19.60
2007,08,16,12,19,19.50
2007,08,16,12,20,19.50
2007,08,16,12,21,19.50
2007,08,16,12,22,19.50
2007,08,16,12,23,19.40
2007,08,16,12,24,19.40
2007,08,16,12,25,19.40
2007,08,16,12,26,19.30
2007,08,16,12,27,19.20
2007,08,16,12,28,19.10
2007,08,16,12,29,19.10
2007,08,16,12,30,19.00
2007,08,16,12,31,18.90
2007,08,16,12,32,18.80
2007,08,16,12,33,18.70
2007,08,16,12,34,18.60
2007,08,16,12,35,18.50
2007,08,16,12,36,18.40
2007,08,16,12,37,18.30
2007,08,16,12,38,18.30
2007,08,16,12,39,18.20
2007,08,16,12,40,18.20
2007,08,16,12,41,18.20
2007,08,16,12,42,18.20
2007,08,16,12,43,18.20
2007,08,16,12,44,18.20
2007,08,16,12,45,18.20
2007,08,16,12,46,18.20
2007,08,16,12,47,18.20
2007,08,16,12,48,18.30
2007,08,16,12,49,18.30
2007,08,16,12,50,18.40
2007,08,16,12,51,18.40
2007,08,16,12,52,18.50
2007,08,16,12,53,18.60
2007,08,16,12,54,18.60
2007,08,16,12,55,18.60
2007,08,16,12,56,18.60
2007,08,16,12,57,18.60
2007,08,16,12,58,18.60
2007,08,16,12,59,18.70
2007,08,16,13,00,18.70
2007,08,16,13,01,18.70
2007,08,16,13,02,18.70
2007,08,16,13,03,18.70
2007,08,16,13,04,18.70
2007,08,16,13,05,18.80
2007,08,16,13,06,18.90
2007,08,16,13,07,19.00
2007,08,16,13,08,19.10
2007,08,16,13,09,19.10
2007,08,16,13,10,19.10
2007,08,16,13,11,19.10
2007,08,16,13,12,19.20
2007,08,16,13,13,19.20
2007,08,16,13,14,19.20
2007,08,16,13,15,19.20
2007,08,16,13,16,19.30
2007,08,16,13,17,19.30
2007,08,16,13,18,19.30
2007,08,16,13,19,19.30
2007,08,16,13,20,19.40
2007,08,16,13,21,19.50
2007,08,16,13,22,19.70
2007,08,16,13,23,19.90
2007,08,16,13,24,20.10
2007,08,16,13,25,20.30
2007,08,16,13,26,20.30
2007,08,16,13,27,20.30
2007,08,16,13,28,20.40
2007,08,16,13,29,20.40
2007,08,16,13,30,20.40
2007,08,16,13,31,20.40
2007,08,16,13,32,20.30
2007,08,16,13,33,20.20
2007,08,16,13,34,20.00
2007,08,16,13,35,20.00
2007,08,16,13,36,20.00
2007,08,16,13,37,20.00
2007,08,16,13,38,20.00
2007,08,16,13,39,20.10
2007,08,16,13,40,20.10
2007,08,16,13,41,20.10
2007,08,16,13,42,20.10
2007,08,16,13,43,20.20
2007,08,16,13,44,20.30
2007,08,16,13,45,20.50
2007,08,16,13,46,20.60
2007,08,16,13,47,20.60
2007,08,16,13,48,20.60
2007,08,16,13,49,20.60
2007,08,16,13,50,20.70
2007,08,16,13,51,20.60
2007,08,16,13,52,20.40
2007,08,16,13,53,20.30
2007,08,16,13,54,20.20
2007,08,16,13,55,20.20
2007,08,16,13,56,20.10
2007,08,16,13,57,19.90
2007,08,16,13,58,19.80
2007,08,16,13,59,19.70
2007,08,16,14,00,19.80
2007,08,16,14,01,19.80
2007,08,16,14,02,19.80
2007,08,16,14,03,19.90
2007,08,16,14,04,20.00
2007,08,16,14,05,20.10
2007,08,16,14,06,20.20
2007,08,16,14,07,20.40
2007,08,16,14,08,20.50
2007,08,16,14,09,20.50
2007,08,16,14,10,20.50
2007,08,16,14,11,20.40
2007,08,16,14,12,20.30
2007,08,16,14,13,20.20
2007,08,16,14,14,20.20
2007,08,16,14,15,20.20
2007,08,16,14,16,20.10
2007,08,16,14,17,20.10
2007,08,16,14,18,20.10
2007,08,16,14,19,20.00
2007,08,16,14,20,20.00
2007,08,16,14,21,19.90
2007,08,16,14,22,19.90
2007,08,16,14,23,19.80
2007,08,16,14,24,19.80
2007,08,16,14,25,19.80
2007,08,16,14,26,19.70
2007,08,16,14,27,19.70
2007,08,16,14,28,19.70
2007,08,16,14,29,19.70
2007,08,16,14,30,19.60
2007,08,16,14,31,19.60
2007,08,16,14,32,19.60
2007,08,16,14,33,19.60
2007,08,16,14,34,19.60
2007,08,16,14,35,19.60
2007,08,16,14,36,19.60
2007,08,16,14,37,19.50
2007,08,16,14,38,19.40
2007,08,16,14,39,19.30
2007,08,16,14,40,19.30
2007,08,16,14,41,19.30
2007,08,16,14,42,19.20
2007,08,16,14,43,19.30
2007,08,16,14,44,19.30
2007,08,16,14,45,19.30
2007,08,16,14,46,19.30
2007,08,16,14,47,19.30
2007,08,16,14,48,19.20
2007,08,16,14,49,19.20
2007,08,16,14,50,19.10
2007,08,16,14,51,19.10
2007,08,16,14,52,19.20
2007,08,16,14,53,19.10
2007,08,16,14,54,19.20
2007,08,16,14,55,19.20
2007,08,16,14,56,19.20
2007,08,16,14,57,19.20
2007,08,16,14,58,19.20
2007,08,16,14,59,19.20
2007,08,16,15,00,19.20
2007,08,16,15,01,19.20
2007,08,16,15,02,19.20
2007,08,16,15,03,19.20
2007,08,16,15,04,19.20
2007,08,16,15,05,19.20
2007,08,16,15,06,19.20
2007,08,16,15,07,19.10
2007,08,16,15,08,19.10
2007,08,16,15,09,19.00
2007,08,16,15,10,18.90
2007,08,16,15,11,18.80
2007,08,16,15,12,18.80
2007,08,16,15,13,18.70
2007,08,16,15,14,18.70
2007,08,16,15,15,18.60
2007,08,16,15,16,18.60
2007,08,16,15,17,18.50
2007,08,16,15,18,18.50
2007,08,16,15,19,18.50
2007,08,16,15,20,18.60
2007,08,16,15,21,18.60
2007,08,16,15,22,18.70
2007,08,16,15,23,18.70
2007,08,16,15,24,18.70
2007,08,16,15,25,18.70
2007,08,16,15,26,18.80
2007,08,16,15,27,18.80
2007,08,16,15,28,18.80
2007,08,16,15,29,18.80
2007,08,16,15,30,18.80
2007,08,16,15,31,18.80
2007,08,16,15,32,18.80
2007,08,16,15,33,18.80
2007,08,16,15,34,18.70
2007,08,16,15,35,18.70
2007,08,16,15,36,18.80
2007,08,16,15,37,18.70
2007,08,16,15,38,18.70
2007,08,16,15,39,18.70
2007,08,16,15,40,18.70
2007,08,16,15,41,18.70
2007,08,16,15,42,18.70
2007,08,16,15,43,18.70
2007,08,16,15,44,18.70
2007,08,16,15,45,18.70
2007,08,16,15,46,18.70
2007,08,16,15,47,18.70
2007,08,16,15,48,18.70
2007,08,16,15,49,18.70
2007,08,16,15,50,18.70
2007,08,16,15,51,18.60
2007,08,16,15,52,18.60
2007,08,16,15,53,18.60
2007,08,16,15,54,18.50
2007,08,16,15,55,18.40
2007,08,16,15,56,18.40
2007,08,16,15,57,18.40
2007,08,16,15,58,18.30
2007,08,16,15,59,18.30
2007,08,16,16,00,18.30
2007,08,16,16,01,18.20
2007,08,16,16,02,18.20
2007,08,16,16,03,18.20
2007,08,16,16,04,18.10
2007,08,16,16,05,18.10
2007,08,16,16,06,18.10
2007,08,16,16,07,18.10
2007,08,16,16,08,18.10
2007,08,16,16,09,18.10
2007,08,16,16,10,18.10
2007,08,16,16,11,18.10
2007,08,16,16,12,18.10
2007,08,16,16,13,18.10
2007,08,16,16,14,18.10
2007,08,16,16,15,18.20
2007,08,16,16,16,18.20
2007,08,16,16,17,18.20
2007,08,16,16,18,18.30
2007,08,16,16,19,18.30
2007,08,16,16,20,18.30
2007,08,16,16,21,18.40
2007,08,16,16,22,18.40
2007,08,16,16,23,18.40
2007,08,16,16,24,18.40
2007,08,16,16,25,18.40
2007,08,16,16,26,18.30
2007,08,16,16,27,18.30
2007,08,16,16,28,18.30
2007,08,16,16,29,18.30
2007,08,16,16,30,18.20
2007,08,16,16,31,18.20
2007,08,16,16,32,18.20
2007,08,16,16,33,18.20
2007,08,16,16,34,18.10
2007,08,16,16,35,18.10
2007,08,16,16,36,18.10
2007,08,16,16,37,18.00
2007,08,16,16,38,18.00
2007,08,16,16,39,18.00
2007,08,16,16,40,18.00
2007,08,16,16,41,17.90
2007,08,16,16,42,17.90
2007,08,16,16,43,17.90
2007,08,16,16,44,17.90
2007,08,16,16,45,17.80
2007,08,16,16,46,17.80
2007,08,16,16,47,17.70
2007,08,16,16,48,17.70
2007,08,16,16,49,17.60
2007,08,16,16,50,17.60
2007,08,16,16,51,17.60
2007,08,16,16,52,17.60
2007,08,16,16,53,17.50
2007,08,16,16,54,17.50
2007,08,16,16,55,17.50
2007,08,16,16,56,17.50
2007,08,16,16,57,17.40
2007,08,16,16,58,17.40
2007,08,16,16,59,17.40
2007,08,16,17,00,17.50
2007,08,16,17,01,17.50
2007,08,16,17,02,17.50
2007,08,16,17,03,17.50
2007,08,16,17,04,17.60
2007,08,16,17,05,17.60
2007,08,16,17,06,17.60
2007,08,16,17,07,17.70
2007,08,16,17,08,17.70
2007,08,16,17,09,17.70
2007,08,16,17,10,17.70
2007,08,16,17,11,17.70
2007,08,16,17,12,17.80
2007,08,16,17,13,17.80
2007,08,16,17,14,17.80
2007,08,16,17,15,17.80
2007,08,16,17,16,17.80
2007,08,16,17,17,17.80
2007,08,16,17,18,17.90
2007,08,16,17,19,17.90